Location: Maccacari
(45.1333°N, 11.1333°E)
Time: 02:30:44
(UTC+00:00)

A-11 Canister half - Pass Details

Date: 30 January 2021
Orbit: 1525 x 1684 km, 47.3° (Epoch: 05 March)

Event Time Altitude Azimuth Distance (km) Brightness Sun altitude
Rises 18:31:32 0° 293° (WNW) 4,734 12.6 -23.2°
Reaches altitude 10° 18:34:43 10° 288° (WNW) 3,767 12.0 -23.8°
Maximum altitude 18:43:39 46° 219° (SW) 2,046 9.8 -25.4°
Enters shadow 18:52:13 12° 152° (SSE) 3,688 10.7 -26.9°
